Moses Lake, WA
on Sunday, February 17, 2013

Sunday
Previous Day Next Day
Daily Summary
 ActualAverageRecord
Temperature
Mean Temperature °F 36°F  
Max Temperature 52°F 45°F 61°F (1981)
Min Temperature 30°F 27°F 10°F (2006)
Degree Days
Heating Degree Days 24 29  
Month to date heating degree days 474 528  
Since 1 July heating degree days 3828 4202  
Cooling Degree Days 0 0  
Month to date cooling degree days 0 0  
Year to date cooling degree days 0 0  
Moisture
Dew Point 24°F   
Average Humidity 53    
Maximum Humidity 75    
Minimum Humidity 30    
Precipitation
Precipitation 0.00 in 0.03 in 0.18 in (1983)
Month to date precipitation 0.00 0.53  
Year to date precipitation 0.28 1.67  
Wind
Wind Speed 5 mph   
Max Wind Speed 15 mph   
Max Gust Speed 17 mph   
Visibility 10 miles   
Events     

Key: T is trace of precipitation, MM is missing value
Source: NWS Daily Summary
Time(PST)TemperatureDew PointHumidity Pressure Visibility Wind DirectionWind SpeedGust SpeedPrecipitationEvents Conditions
12:52 AM 36.0°F 26.1°F 67% 30.04 in 10.0 miles West 10.4 mph - N/A   Clear
1:52 AM 34.0°F 26.1°F 73% 30.06 in 10.0 miles West 8.1 mph - N/A   Clear
2:52 AM 34.0°F 26.1°F 73% 30.06 in 10.0 miles West 8.1 mph - N/A   Clear
3:52 AM 34.0°F 25.0°F 70% 30.06 in 10.0 miles West 3.5 mph - N/A   Clear
4:52 AM 34.0°F 25.0°F 70% 30.08 in 10.0 miles West 8.1 mph - N/A   Clear
5:52 AM 32.0°F 24.1°F 73% 30.09 in 10.0 miles SW 3.5 mph - N/A   Clear
6:52 AM 33.1°F 24.1°F 70% 30.10 in 10.0 miles WSW 5.8 mph - N/A   Clear
7:52 AM 35.6°F 26.6°F 70% 30.08 in 10.0 miles Variable 3.5 mph - N/A   Clear
8:52 AM 37.0°F 27.0°F 67% 30.12 in 10.0 miles Calm Calm - N/A   Clear
9:52 AM 42.1°F 28.0°F 58% 30.13 in 10.0 miles SW 8.1 mph - N/A   Clear
10:52 AM 46.9°F 26.1°F 44% 30.14 in 10.0 miles WSW 6.9 mph - N/A   Clear
11:52 AM 50.0°F 26.1°F 39% 30.13 in 10.0 miles West 6.9 mph - N/A   Clear
12:52 PM 50.0°F 24.1°F 36% 30.11 in 10.0 miles SSW 4.6 mph - N/A   Clear
1:52 PM 50.0°F 23.0°F 35% 30.10 in 10.0 miles WSW 3.5 mph - N/A   Mostly Cloudy
2:52 PM 50.0°F 23.0°F 35% 30.10 in 10.0 miles Calm Calm - N/A   Overcast
3:52 PM 51.1°F 21.9°F 32% 30.10 in 10.0 miles Calm Calm - N/A   Overcast
4:52 PM 48.9°F 21.0°F 33% 30.09 in 10.0 miles SSW 3.5 mph - N/A   Mostly Cloudy
5:52 PM 46.9°F 19.9°F 34% 30.09 in 10.0 miles SSW 3.5 mph - N/A   Overcast
6:52 PM 45.0°F 23.0°F 42% 30.10 in 10.0 miles South 10.4 mph - N/A   Overcast
7:52 PM 39.9°F 24.1°F 53% 30.11 in 10.0 miles SSW 8.1 mph - N/A   Scattered Clouds
9:52 PM 36.0°F 24.1°F 62% 30.11 in 10.0 miles South 6.9 mph - N/A   Clear
10:52 PM 30.9°F 23.0°F 72% 30.11 in 10.0 miles North 3.5 mph - N/A   Clear
11:52 PM 30.9°F 24.1°F 76% 30.10 in 10.0 miles Calm Calm - N/A   Clear
Moon Phase
Feb. 17 Feb. 17 Feb. 25 Mar. 04 Mar. 11
Sunrise:06:58 AM (PST) Moon Rise:10:22 AM (PST)2/17
Sunset:05:24 PM (PST) Moon Set:12:56 AM (PST)2/17

Copyright © 2014 The Weather Underground, Inc.